This is the latest recevied weather packets stored in our database for station/object DC0VZ-6. If no packets are shown the sender has not sent any weather packets the latest 10 day(s).
| Time | Temp. | Humidity | Pressure | Rain* | Wind** | Luminosity | Snow |
|---|---|---|---|---|---|---|---|
| 1777980373 | 17.78° C | 48% | 976.9 hPa | 0 mm | - | - | - |
| 1777979773 | 18.33° C | 48% | 977.2 hPa | 0 mm | - | - | - |
| 1777979173 | 17.78° C | 48% | 977.2 hPa | 0 mm | - | - | - |
| 1777978573 | 16.67° C | 48% | 977.1 hPa | 0 mm | - | - | - |
| 1777977973 | 17.22° C | 47% | 977.1 hPa | 0 mm | - | - | - |
| 1777977373 | 16.67° C | 48% | 977.4 hPa | 0 mm | - | - | - |
| 1777976173 | 16.67° C | 48% | 977.3 hPa | 0 mm | - | - | - |
| 1777975573 | 17.22° C | 48% | 977.3 hPa | 0 mm | - | - | - |
| 1777974972 | 17.22° C | 48% | 977.4 hPa | 0 mm | - | - | - |
| 1777974372 | 16.67° C | 48% | 977.4 hPa | 0 mm | - | - | - |
| 1777973772 | 16.67° C | 48% | 977.6 hPa | 0 mm | - | - | - |
| 1777973172 | 16.67° C | 49% | 977.6 hPa | 0 mm | - | - | - |
| 1777972572 | 16.67° C | 49% | 977.4 hPa | 0 mm | - | - | - |
| 1777971972 | 16.11° C | 49% | 977.4 hPa | 0 mm | - | - | - |
| 1777971372 | 15.56° C | 49% | 977.5 hPa | 0 mm | - | - | - |
| 1777970772 | 15.56° C | 49% | 977.5 hPa | 0 mm | - | - | - |
| 1777970172 | 15.56° C | 49% | 977.7 hPa | 0 mm | - | - | - |
| 1777969572 | 15.56° C | 49% | 977.7 hPa | 0 mm | - | - | - |
| 1777968972 | 15.56° C | 49% | 977.6 hPa | 0 mm | - | - | - |
| 1777968372 | 16.11° C | 49% | 977.6 hPa | 0 mm | - | - | - |
| 1777967771 | 16.11° C | 49% | 977.9 hPa | 0 mm | - | - | - |
| 1777967172 | 16.11° C | 49% | 977.9 hPa | 0 mm | - | - | - |
| 1777966571 | 16.11° C | 49% | 977.7 hPa | 0 mm | - | - | - |
| 1777965971 | 16.11° C | 49% | 977.7 hPa | 0 mm | - | - | - |
| 1777965371 | 16.11° C | 49% | 977.7 hPa | 0 mm | - | - | - |
* Rain latest hour (hover to see other rain measurements)
** Current wind speed in m/s (hover to see current wind gust speed)